{"data":{"norad_id":64812,"epoch":"2026-05-24T17:26:39.312960Z","epoch_age_seconds":95681,"freshness":"FRESH","line1":"1 64812U 25150Y   26144.72684390  .00007313  00000+0  61970-3 0  9999","line2":"2 64812  70.0007 302.7999 0002679 270.2832  89.8020 14.98349842 47903","mean_motion":14.98349842,"eccentricity":0.0002679,"inclination_deg":70.0007,"raan_deg":302.7999,"arg_perigee_deg":270.2832,"mean_anomaly_deg":89.802,"bstar":0.0006197,"rev_number":4790,"period_min":96.105726422201,"perigee_km":570.13259163594,"apogee_km":573.85647211071,"semimajor_km":6950.1315318733,"source":"CELESTRAK","updated_at":"2026-05-25T13:38:20.569780Z"}}